Location: Bakov nad Jizerou
(50.4784°N, 14.9394°E)
Time: 17:40:02
(UTC+00:00)

Cosmos 2322 - Pass Details

Date: 23 October 2021
Orbit: 841 x 854 km, 71.0° (Epoch: 04 December)

Event Time Altitude Azimuth Distance (km) Brightness Sun altitude
Rises 04:01:01 0° 330° (NNW) 3,430 6.6 -15.7°
Reaches altitude 10° 04:03:29 10° 330° (NNW) 2,489 5.9 -15.3°
Maximum altitude 04:09:13 88° 241° (WSW) 857 3.7 -14.4°
Drops below altitude 10° 04:14:54 10° 154° (SSE) 2,464 6.5 -13.5°
Sets 04:17:19 0° 154° (SSE) 3,394 7.2 -13.1°
